Weather History for Prague, Czech Republic

Change the Weather History Date:

Monday, February 11, 2013

  Actual Average Record
Temperature  
Mean Temperature 22 °F -  
Max Temperature 27 °F 40 °F 53 °F (1998)
Min Temperature 18 °F 26 °F -4 °F (2012)
Degree Days  
Heating Degree Days 42    
Moisture  
Dew Point 19 °F    
Average Humidity 77    
Maximum Humidity 93    
Minimum Humidity 51    
Precipitation  
Precipitation 0.00 in 0.03 in - ()
Sea Level Pressure  
Sea Level Pressure 29.76 in    
Wind  
Wind Speed 9 mph ()    
Max Wind Speed 15 mph    
Max Gust Speed -    
Visibility 6.1 miles    
Events      
Averages and records for this station are not official NWS values.
T = Trace of Precipitation, MM = Missing Value Source: Averaged Metar Reports

Daily Weather History Graph

Daily Weather History Graph

Search for Another Location

Airport:

Trip Planner

Search our weather history database for the weather conditions in past years. The results will help you decide how hot, cold, wet, or windy it might be!

Date:

Astronomy

Feb. 11, 2013 Rise Set
Actual Time 7:20 AM CET 5:14 PM CET
Civil Twilight 6:46 AM CET 5:48 PM CET
Nautical Twilight 6:08 AM CET 6:26 PM CET
Astronomical Twilight 5:31 AM CET 7:03 PM CET
Moon 7:23 AM CET (2/11) 7:07 PM CET (2/11)
Length of Visible Light 11h 01m
Length of Day
9h 53m
New Moon, 2% of the Moon is Illuminated
Feb 11
New Moon
Feb 17
First Quarter
Feb 25
Full
Mar 4
Last Quarter
Mar 11
New

Hourly Weather History & Observations

Time (CET) Temp. Windchill Dew Point Humidity Pressure Visibility Wind Dir Wind Speed Gust Speed Precip Events Conditions
12:00 AM 26.6 °F 16.8 °F 19.4 °F 74% 29.86 in 6.2 mi East 10.4 mph - N/A   Overcast
12:30 AM 26.6 °F 16.2 °F 17.6 °F 69% 29.86 in 6.2 mi East 11.5 mph - N/A   Overcast
1:00 AM 26 °F - 15 °F 51% 29.93 in 19 mi ESE 8.9 mph - -   Overcast
1:00 AM 26.6 °F 16.8 °F 15.8 °F 64% 29.83 in 6.2 mi ESE 10.4 mph - N/A   Overcast
1:30 AM 26.6 °F 16.8 °F 17.6 °F 69% 29.83 in 6.2 mi ESE 10.4 mph - N/A   Overcast
2:00 AM 26.6 °F 17.5 °F 17.6 °F 69% 29.83 in 6.2 mi East 9.2 mph - N/A   Overcast
2:30 AM 24.8 °F 15.3 °F 17.6 °F 74% 29.83 in 6.2 mi ESE 9.2 mph - N/A   Scattered Clouds
3:00 AM 21.2 °F 12.6 °F 15.8 °F 80% 29.80 in 6.2 mi East 6.9 mph - N/A   Partly Cloudy
3:30 AM 21.2 °F 12.6 °F 17.6 °F 86% 29.80 in 6.2 mi East 6.9 mph - N/A   Partly Cloudy
4:00 AM 21.2 °F 13.6 °F 17.6 °F 86% 29.80 in - East 5.8 mph - N/A   Clear
4:30 AM 21.2 °F 13.6 °F 17.6 °F 86% 29.77 in - East 5.8 mph - N/A   Clear
5:00 AM 19.4 °F 10.4 °F 15.8 °F 86% 29.77 in - East 6.9 mph - N/A   Clear
5:30 AM 19.4 °F 10.4 °F 17.6 °F 93% 29.77 in - East 6.9 mph - N/A   Clear
6:00 AM 19.4 °F 10.4 °F 15.8 °F 86% 29.77 in - East 6.9 mph - N/A   Clear
6:30 AM 19.4 °F 11.5 °F 15.8 °F 86% 29.77 in 5.0 mi East 5.8 mph - N/A   Unknown
7:00 AM 19 °F - 16 °F 83% 29.86 in 4 mi East 6.7 mph - -   Mist
7:00 AM 19.4 °F 11.5 °F 15.8 °F 86% 29.77 in 4.3 mi East 5.8 mph - N/A   Unknown
7:30 AM 21.2 °F 13.6 °F 17.6 °F 86% 29.77 in 3.7 mi East 5.8 mph - N/A   Unknown
8:00 AM 21.2 °F 13.6 °F 17.6 °F 86% 29.77 in 3.7 mi East 5.8 mph - N/A   Scattered Clouds
8:30 AM 23.0 °F 15.8 °F 21.2 °F 93% 29.74 in 3.7 mi East 5.8 mph - N/A   Mostly Cloudy
9:00 AM 24.8 °F 15.3 °F 21.2 °F 86% 29.74 in 3.7 mi East 9.2 mph - N/A   Overcast
9:30 AM 24.8 °F 14.6 °F 21.2 °F 86% 29.74 in 4.3 mi East 10.4 mph - N/A   Overcast
10:00 AM 26.6 °F 15.7 °F 21.2 °F 80% 29.74 in 5.0 mi East 12.7 mph - N/A   Overcast
10:30 AM 26.6 °F 16.2 °F 21.2 °F 80% 29.74 in 6.2 mi East 11.5 mph - N/A   Overcast
11:00 AM 26.6 °F 15.7 °F 21.2 °F 80% 29.74 in 6.2 mi East 12.7 mph - N/A   Overcast
11:30 AM 26.6 °F 17.5 °F 21.2 °F 80% 29.74 in 6.2 mi ESE 9.2 mph - N/A   Overcast
11:31 AM 26.6 °F 17.5 °F 21.2 °F 80% 29.74 in 6.2 mi ESE 9.2 mph - N/A   Overcast
12:00 PM 26.6 °F 14.7 °F 21.2 °F 80% 29.74 in 6.2 mi SE 15.0 mph - N/A   Overcast
12:30 PM 26.6 °F 15.2 °F 21.2 °F 80% 29.74 in 6.2 mi ESE 13.8 mph - N/A   Overcast
1:00 PM 27 °F - 19 °F 61% 29.81 in 6 mi ESE 13.4 mph - -   Overcast
1:00 PM 26.6 °F 16.2 °F 19.4 °F 74% 29.71 in 6.2 mi ESE 11.5 mph - N/A   Overcast
1:30 PM 26.6 °F 16.2 °F 21.2 °F 80% 29.71 in 6.2 mi SE 11.5 mph - N/A   Overcast
2:00 PM 26.6 °F 20.0 °F 21.2 °F 80% 29.71 in 6.2 mi ESE 5.8 mph - N/A   Overcast
2:30 PM 26.6 °F 15.7 °F 19.4 °F 74% 29.71 in 6.2 mi ESE 12.7 mph - N/A   Overcast
3:00 PM 26.6 °F 15.7 °F 19.4 °F 74% 29.71 in 6.2 mi ESE 12.7 mph - N/A   Overcast
3:30 PM 26.6 °F 15.2 °F 19.4 °F 74% 29.71 in 6.2 mi ESE 13.8 mph - N/A   Overcast
4:00 PM 26.6 °F 16.2 °F 19.4 °F 74% 29.71 in 6.2 mi ESE 11.5 mph - N/A   Mostly Cloudy
4:30 PM 26.6 °F 15.7 °F 19.4 °F 74% 29.71 in 6.2 mi East 12.7 mph - N/A   Mostly Cloudy
5:00 PM 26.6 °F 15.7 °F 19.4 °F 74% 29.71 in 6.2 mi East 12.7 mph - N/A   Overcast
5:30 PM 26.6 °F 15.7 °F 17.6 °F 69% 29.71 in 6.2 mi SE 12.7 mph - N/A   Overcast
6:00 PM 26.6 °F 15.7 °F 19.4 °F 74% 29.71 in 6.2 mi ESE 12.7 mph - N/A   Overcast
6:30 PM 26.6 °F 16.8 °F 19.4 °F 74% 29.71 in 6.2 mi East 10.4 mph - N/A   Overcast
7:00 PM 27 °F - 19 °F 62% 29.81 in 9 mi East 11.2 mph - -   Overcast
7:00 PM 26.6 °F 16.2 °F 19.4 °F 74% 29.71 in 6.2 mi East 11.5 mph - N/A   Mostly Cloudy
7:30 PM 26.6 °F 15.2 °F 19.4 °F 74% 29.71 in 6.2 mi ESE 13.8 mph - N/A   Mostly Cloudy
8:00 PM 26.6 °F 15.2 °F 17.6 °F 69% 29.71 in 6.2 mi ESE 13.8 mph - N/A   Overcast
8:30 PM 26.6 °F 16.2 °F 19.4 °F 74% 29.71 in 6.2 mi East 11.5 mph - N/A   Overcast
9:00 PM 26.6 °F 17.5 °F 19.4 °F 74% 29.71 in 6.2 mi East 9.2 mph - N/A   Overcast
9:30 PM 26.6 °F 16.2 °F 19.4 °F 74% 29.71 in 6.2 mi East 11.5 mph - N/A   Overcast
10:00 PM 26.6 °F 16.2 °F 21.2 °F 80% 29.71 in 6.2 mi East 11.5 mph - N/A   Overcast
10:30 PM 26.6 °F 15.7 °F 21.2 °F 80% 29.74 in 6.2 mi East 12.7 mph - N/A   Overcast
11:00 PM 26.6 °F 15.7 °F 21.2 °F 80% 29.71 in 6.2 mi East 12.7 mph - N/A   Overcast